Aérodrome :
LOGIN :

S'inscrire | Disclaimer

   EN    FR    IT 

 










Légende :    VFR   VFR Marginal   IFR   IFR Intensif   IFR Très Intensif
Visi : 
Plafond : 
>= 8 km
>= 3000ft
5 à 8 km
1000 à 3000 ft
1500m à 5 km
500 à 1000 ft
800 à 1500m
200 à 500 ft
< 800m
< 200 ft
Symboles :   Orages  Brouillard  Fortes neiges  Fortes précipitations  Vent > 20 kt
SIGMETs :   Divers  Orages  Givrage  Turbulence  Onde Orograph.  Cendres Volcan.







- Altitude de l'aérodrome : 74 ft
- Code IATA : MRS
- Voir les cartes d'approche


LFML - Marseille / Marignane

DERNIER METAR :
  • 131500Z AUTO 31005KT CAVOK 20/15 Q1026 NOSIG

METARs EXPIRÉS :
  • 131430Z AUTO 29008KT CAVOK 20/15 Q1026 NOSIG
  • 131400Z AUTO 29006KT CAVOK 20/15 Q1026 NOSIG
  • 131330Z AUTO 28006KT CAVOK 21/15 Q1026 NOSIG
  • 131300Z AUTO 19006KT CAVOK 22/14 Q1026 NOSIG
  • 131230Z AUTO 18006KT 150V210 CAVOK 22/14 Q1027 NOSIG

TAF TAF LFML
Valide du 13 à 15h jusqu'au 14 à 21h UTC


131400Z 1315/1421 VRB05KT CAVOK TX20/1315Z TN14/1403Z
ATIS : +33 4 42 31 15 15
Pas de NOTAMs connus pour ce terrain.



MET'MAP, la Météo Aéronautique d'un coup d'oeil ! - Copyright ORBIFLY Décembre 2007 - Disclaimer

ORBIFLY MET'MAP TEAM :

Programmation & Développement : Alexandra Zaïnal
Conception & Développement : Baudouin d'Aumeries
Co-Programmation & Développement : Marc-Olivier Méhu
Soutien technique & logistique : Manuel Goepfert

Contact : metmap@orbifly.com




SOURCES & CREDITS :

   NOAA